iso_date,Year,Hour,Min,DOY,POS_DOY,Lat,Lon,BP,Ts,Ta,has_bp,has_ts,has_ta,BuoyID,Buoy_Type,Buoy_Owner,Logistics,Hemisphere
2022-08-01T00:00:00Z,2022,0,0,213.0,213.0,80.40225,7.04095,-999.0,1.3,-999.0,no,yes,no,300534062074080,NOMAD,AWI/USIABP,PolarStern,North
2022-08-01T01:00:02Z,2022,1,0,213.0417,213.0417,80.40488,7.05429,-999.0,1.5,-999.0,no,yes,no,300534062074080,NOMAD,AWI/USIABP,PolarStern,North
2022-08-01T01:59:57Z,2022,2,0,213.0833,213.0833,80.40769,7.08142,-999.0,1.5,-999.0,no,yes,no,300534062074080,NOMAD,AWI/USIABP,PolarStern,North
2022-08-01T03:00:00Z,2022,3,0,213.125,213.125,80.41058,7.11248,-999.0,1.4,-999.0,no,yes,no,300534062074080,NOMAD,AWI/USIABP,PolarStern,North
2022-08-01T04:00:02Z,2022,4,0,213.1667,213.1667,80.41394,7.17598,-999.0,1.4,-999.0,no,yes,no,300534062074080,NOMAD,AWI/USIABP,PolarStern,North
2022-08-01T04:59:57Z,2022,5,0,213.2083,213.2083,80.41166,7.24342,-999.0,1.4,-999.0,no,yes,no,300534062074080,NOMAD,AWI/USIABP,PolarStern,North
2022-08-01T06:00:00Z,2022,6,0,213.25,213.25,80.40496,7.28677,-999.0,1.5,-999.0,no,yes,no,300534062074080,NOMAD,AWI/USIABP,PolarStern,North
2022-08-01T07:00:02Z,2022,7,0,213.2917,213.2917,80.39551,7.29259,-999.0,1.5,-999.0,no,yes,no,300534062074080,NOMAD,AWI/USIABP,PolarStern,North
2022-08-01T07:59:57Z,2022,8,0,213.3333,213.3333,80.38589,7.28833,-999.0,1.5,-999.0,no,yes,no,300534062074080,NOMAD,AWI/USIABP,PolarStern,North
2022-08-01T09:00:00Z,2022,9,0,213.375,213.375,80.37683,7.26324,-999.0,1.5,-999.0,no,yes,no,300534062074080,NOMAD,AWI/USIABP,PolarStern,North
2022-08-01T10:00:02Z,2022,10,0,213.4167,213.4167,80.36691,7.22013,-999.0,1.5,-999.0,no,yes,no,300534062074080,NOMAD,AWI/USIABP,PolarStern,North
2022-08-01T10:59:57Z,2022,11,0,213.4583,213.4583,80.35921,7.16966,-999.0,1.6,-999.0,no,yes,no,300534062074080,NOMAD,AWI/USIABP,PolarStern,North
2022-08-01T12:00:00Z,2022,12,0,213.5,213.5,80.35614,7.10974,-999.0,1.6,-999.0,no,yes,no,300534062074080,NOMAD,AWI/USIABP,PolarStern,North
2022-08-01T13:00:02Z,2022,13,0,213.5417,213.5417,80.35727,7.05433,-999.0,1.5,-999.0,no,yes,no,300534062074080,NOMAD,AWI/USIABP,PolarStern,North
2022-08-01T13:59:57Z,2022,14,0,213.5833,213.5833,80.36293,7.0347,-999.0,1.6,-999.0,no,yes,no,300534062074080,NOMAD,AWI/USIABP,PolarStern,North
2022-08-01T15:00:00Z,2022,15,0,213.625,213.625,80.36568,7.03762,-999.0,1.5,-999.0,no,yes,no,300534062074080,NOMAD,AWI/USIABP,PolarStern,North
2022-08-01T16:00:02Z,2022,16,0,213.6667,213.6667,80.36578,7.03958,-999.0,1.6,-999.0,no,yes,no,300534062074080,NOMAD,AWI/USIABP,PolarStern,North
2022-08-01T16:59:57Z,2022,17,0,213.7083,213.7083,80.36401,7.04194,-999.0,1.6,-999.0,no,yes,no,300534062074080,NOMAD,AWI/USIABP,PolarStern,North
2022-08-01T18:00:00Z,2022,18,0,213.75,213.75,80.36184,7.02197,-999.0,1.5,-999.0,no,yes,no,300534062074080,NOMAD,AWI/USIABP,PolarStern,North
2022-08-01T19:59:57Z,2022,20,0,213.8333,213.8333,80.35446,6.93189,-999.0,1.5,-999.0,no,yes,no,300534062074080,NOMAD,AWI/USIABP,PolarStern,North
2022-08-01T21:00:00Z,2022,21,0,213.875,213.875,80.35388,6.86836,-999.0,1.5,-999.0,no,yes,no,300534062074080,NOMAD,AWI/USIABP,PolarStern,North
2022-08-01T22:00:02Z,2022,22,0,213.9167,213.9167,80.35996,6.7961,-999.0,1.5,-999.0,no,yes,no,300534062074080,NOMAD,AWI/USIABP,PolarStern,North
2022-08-01T22:59:57Z,2022,23,0,213.9583,213.9583,80.36885,6.75039,-999.0,1.4,-999.0,no,yes,no,300534062074080,NOMAD,AWI/USIABP,PolarStern,North
2022-08-02T00:00:00Z,2022,0,0,214.0,214.0,80.37995,6.72202,-999.0,1.3,-999.0,no,yes,no,300534062074080,NOMAD,AWI/USIABP,PolarStern,North
2022-08-02T01:00:02Z,2022,1,0,214.0417,214.0417,80.38972,6.74365,-999.0,1.3,-999.0,no,yes,no,300534062074080,NOMAD,AWI/USIABP,PolarStern,North
2022-08-02T01:59:57Z,2022,2,0,214.0833,214.0833,80.39593,6.80066,-999.0,1.3,-999.0,no,yes,no,300534062074080,NOMAD,AWI/USIABP,PolarStern,North
2022-08-02T03:00:00Z,2022,3,0,214.125,214.125,80.3975,6.85909,-999.0,1.3,-999.0,no,yes,no,300534062074080,NOMAD,AWI/USIABP,PolarStern,North
2022-08-02T04:00:02Z,2022,4,0,214.1667,214.1667,80.39274,6.90838,-999.0,1.3,-999.0,no,yes,no,300534062074080,NOMAD,AWI/USIABP,PolarStern,North
2022-08-02T04:59:57Z,2022,5,0,214.2083,214.2083,80.38527,6.91753,-999.0,1.4,-999.0,no,yes,no,300534062074080,NOMAD,AWI/USIABP,PolarStern,North
2022-08-02T06:00:00Z,2022,6,0,214.25,214.25,80.37741,6.89581,-999.0,1.5,-999.0,no,yes,no,300534062074080,NOMAD,AWI/USIABP,PolarStern,North
2022-08-02T07:00:02Z,2022,7,0,214.2917,214.2917,80.37094,6.87297,-999.0,1.5,-999.0,no,yes,no,300534062074080,NOMAD,AWI/USIABP,PolarStern,North
2022-08-02T07:59:57Z,2022,8,0,214.3333,214.3333,80.36811,6.83045,-999.0,1.5,-999.0,no,yes,no,300534062074080,NOMAD,AWI/USIABP,PolarStern,North
2022-08-02T09:00:00Z,2022,9,0,214.375,214.375,80.36693,6.78471,-999.0,1.5,-999.0,no,yes,no,300534062074080,NOMAD,AWI/USIABP,PolarStern,North
2022-08-02T10:00:02Z,2022,10,0,214.4167,214.4167,80.36446,6.73352,-999.0,1.6,-999.0,no,yes,no,300534062074080,NOMAD,AWI/USIABP,PolarStern,North
2022-08-02T10:59:57Z,2022,11,0,214.4583,214.4583,80.36368,6.6787,-999.0,1.7,-999.0,no,yes,no,300534062074080,NOMAD,AWI/USIABP,PolarStern,North
2022-08-02T12:00:00Z,2022,12,0,214.5,214.5,80.36304,6.63863,-999.0,1.8,-999.0,no,yes,no,300534062074080,NOMAD,AWI/USIABP,PolarStern,North
2022-08-02T13:00:02Z,2022,13,0,214.5417,214.5417,80.36209,6.59955,-999.0,2.1,-999.0,no,yes,no,300534062074080,NOMAD,AWI/USIABP,PolarStern,North
2022-08-02T13:59:57Z,2022,14,0,214.5833,214.5833,80.3619,6.56402,-999.0,2.3,-999.0,no,yes,no,300534062074080,NOMAD,AWI/USIABP,PolarStern,North
2022-08-02T15:00:00Z,2022,15,0,214.625,214.625,80.36392,6.52744,-999.0,2.4,-999.0,no,yes,no,300534062074080,NOMAD,AWI/USIABP,PolarStern,North
2022-08-02T16:00:02Z,2022,16,0,214.6667,214.6667,80.36633,6.49712,-999.0,2.5,-999.0,no,yes,no,300534062074080,NOMAD,AWI/USIABP,PolarStern,North
2022-08-02T16:59:57Z,2022,17,0,214.7083,214.7083,80.3707,6.45556,-999.0,2.5,-999.0,no,yes,no,300534062074080,NOMAD,AWI/USIABP,PolarStern,North
2022-08-02T18:00:00Z,2022,18,0,214.75,214.75,80.37335,6.42458,-999.0,2.7,-999.0,no,yes,no,300534062074080,NOMAD,AWI/USIABP,PolarStern,North
2022-08-02T19:00:02Z,2022,19,0,214.7917,214.7917,80.37494,6.38072,-999.0,2.8,-999.0,no,yes,no,300534062074080,NOMAD,AWI/USIABP,PolarStern,North
2022-08-02T19:59:57Z,2022,20,0,214.8333,214.8333,80.37835,6.32135,-999.0,2.9,-999.0,no,yes,no,300534062074080,NOMAD,AWI/USIABP,PolarStern,North
2022-08-02T21:00:00Z,2022,21,0,214.875,214.875,80.38338,6.2526,-999.0,2.9,-999.0,no,yes,no,300534062074080,NOMAD,AWI/USIABP,PolarStern,North
2022-08-02T22:00:02Z,2022,22,0,214.9167,214.9167,80.38975,6.18188,-999.0,2.9,-999.0,no,yes,no,300534062074080,NOMAD,AWI/USIABP,PolarStern,North
2022-08-02T22:59:57Z,2022,23,0,214.9583,214.9583,80.39966,6.13453,-999.0,2.7,-999.0,no,yes,no,300534062074080,NOMAD,AWI/USIABP,PolarStern,North
2022-08-03T00:00:00Z,2022,0,0,215.0,215.0,80.41014,6.11503,-999.0,2.6,-999.0,no,yes,no,300534062074080,NOMAD,AWI/USIABP,PolarStern,North
2022-08-03T01:00:02Z,2022,1,0,215.0417,215.0417,80.42033,6.12295,-999.0,2.5,-999.0,no,yes,no,300534062074080,NOMAD,AWI/USIABP,PolarStern,North
2022-08-03T01:59:57Z,2022,2,0,215.0833,215.0833,80.42866,6.15681,-999.0,2.3,-999.0,no,yes,no,300534062074080,NOMAD,AWI/USIABP,PolarStern,North
2022-08-03T03:00:00Z,2022,3,0,215.125,215.125,80.43117,6.20411,-999.0,2.1,-999.0,no,yes,no,300534062074080,NOMAD,AWI/USIABP,PolarStern,North
2022-08-03T04:00:02Z,2022,4,0,215.1667,215.1667,80.42744,6.25873,-999.0,2.1,-999.0,no,yes,no,300534062074080,NOMAD,AWI/USIABP,PolarStern,North
2022-08-03T04:59:57Z,2022,5,0,215.2083,215.2083,80.42191,6.28815,-999.0,2.1,-999.0,no,yes,no,300534062074080,NOMAD,AWI/USIABP,PolarStern,North
2022-08-03T06:00:00Z,2022,6,0,215.25,215.25,80.41599,6.29192,-999.0,2.1,-999.0,no,yes,no,300534062074080,NOMAD,AWI/USIABP,PolarStern,North
2022-08-03T07:00:02Z,2022,7,0,215.2917,215.2917,80.40908,6.27971,-999.0,2.1,-999.0,no,yes,no,300534062074080,NOMAD,AWI/USIABP,PolarStern,North
2022-08-03T07:59:57Z,2022,8,0,215.3333,215.3333,80.40506,6.23798,-999.0,2.1,-999.0,no,yes,no,300534062074080,NOMAD,AWI/USIABP,PolarStern,North
2022-08-03T09:00:00Z,2022,9,0,215.375,215.375,80.40232,6.1793,-999.0,2.1,-999.0,no,yes,no,300534062074080,NOMAD,AWI/USIABP,PolarStern,North
2022-08-03T10:00:02Z,2022,10,0,215.4167,215.4167,80.40031,6.11984,-999.0,2.2,-999.0,no,yes,no,300534062074080,NOMAD,AWI/USIABP,PolarStern,North
2022-08-03T10:59:57Z,2022,11,0,215.4583,215.4583,80.40047,6.0765,-999.0,2.0,-999.0,no,yes,no,300534062074080,NOMAD,AWI/USIABP,PolarStern,North
2022-08-03T12:00:00Z,2022,12,0,215.5,215.5,80.40114,6.04215,-999.0,1.9,-999.0,no,yes,no,300534062074080,NOMAD,AWI/USIABP,PolarStern,North
2022-08-03T13:00:02Z,2022,13,0,215.5417,215.5417,80.40111,6.00708,-999.0,1.9,-999.0,no,yes,no,300534062074080,NOMAD,AWI/USIABP,PolarStern,North
2022-08-03T13:59:57Z,2022,14,0,215.5833,215.5833,80.40014,5.96849,-999.0,1.9,-999.0,no,yes,no,300534062074080,NOMAD,AWI/USIABP,PolarStern,North
2022-08-03T15:00:00Z,2022,15,0,215.625,215.625,80.39656,5.93322,-999.0,1.9,-999.0,no,yes,no,300534062074080,NOMAD,AWI/USIABP,PolarStern,North
2022-08-03T16:00:02Z,2022,16,0,215.6667,215.6667,80.39357,5.89653,-999.0,2.0,-999.0,no,yes,no,300534062074080,NOMAD,AWI/USIABP,PolarStern,North
2022-08-03T16:59:57Z,2022,17,0,215.7083,215.7083,80.39342,5.85565,-999.0,2.0,-999.0,no,yes,no,300534062074080,NOMAD,AWI/USIABP,PolarStern,North
2022-08-03T18:00:00Z,2022,18,0,215.75,215.75,80.39468,5.80251,-999.0,1.8,-999.0,no,yes,no,300534062074080,NOMAD,AWI/USIABP,PolarStern,North
2022-08-03T19:00:02Z,2022,19,0,215.7917,215.7917,80.39761,5.74563,-999.0,1.8,-999.0,no,yes,no,300534062074080,NOMAD,AWI/USIABP,PolarStern,North
2022-08-03T19:59:57Z,2022,20,0,215.8333,215.8333,80.40176,5.67988,-999.0,1.8,-999.0,no,yes,no,300534062074080,NOMAD,AWI/USIABP,PolarStern,North
2022-08-03T21:00:00Z,2022,21,0,215.875,215.875,80.40812,5.61316,-999.0,1.8,-999.0,no,yes,no,300534062074080,NOMAD,AWI/USIABP,PolarStern,North
2022-08-03T22:00:02Z,2022,22,0,215.9167,215.9167,80.41611,5.56163,-999.0,1.9,-999.0,no,yes,no,300534062074080,NOMAD,AWI/USIABP,PolarStern,North
2022-08-03T22:59:57Z,2022,23,0,215.9583,215.9583,80.42523,5.53341,-999.0,2.0,-999.0,no,yes,no,300534062074080,NOMAD,AWI/USIABP,PolarStern,North
2022-08-04T00:00:00Z,2022,0,0,216.0,216.0,80.43214,5.53041,-999.0,1.9,-999.0,no,yes,no,300534062074080,NOMAD,AWI/USIABP,PolarStern,North
2022-08-04T01:00:02Z,2022,1,0,216.0417,216.0417,80.43589,5.53136,-999.0,1.9,-999.0,no,yes,no,300534062074080,NOMAD,AWI/USIABP,PolarStern,North
2022-08-04T01:59:57Z,2022,2,0,216.0833,216.0833,80.4361,5.53544,-999.0,1.9,-999.0,no,yes,no,300534062074080,NOMAD,AWI/USIABP,PolarStern,North
2022-08-04T03:00:00Z,2022,3,0,216.125,216.125,80.43527,5.53138,-999.0,1.9,-999.0,no,yes,no,300534062074080,NOMAD,AWI/USIABP,PolarStern,North
2022-08-04T04:00:02Z,2022,4,0,216.1667,216.1667,80.43389,5.5314,-999.0,2.0,-999.0,no,yes,no,300534062074080,NOMAD,AWI/USIABP,PolarStern,North
2022-08-04T04:59:57Z,2022,5,0,216.2083,216.2083,80.43218,5.52791,-999.0,2.1,-999.0,no,yes,no,300534062074080,NOMAD,AWI/USIABP,PolarStern,North
